User: anonymous   Login
Location: Banios
(43.0451°N, 0.2335°E)
Time: 18:04:00
(UTC+00:00)
Language:

Cosmos 1703 - Orbit

View from above orbital plane
View from above orbital plane
View from above satellite
View from above satellite

Ground track
Ground track

The orbit data is extracted from the following two-line orbital elements,

1 16262U 85108A   21109.82511804  .00001303  00000-0  74784-4 0  9992
2 16262  82.4772 310.9649 0012637 127.2378 233.0007 15.11637120930431
Epoch (UTC): 19 April 2021 19:48:10
Eccentricity: 0.0012637
inclination: 82.4772°
perigee height: 522 km
apogee height: 540 km
right ascension of ascending node: 310.9649°
argument of perigee: 127.2378°
revolutions per day: 15.11637120
mean anomaly at epoch: 233.0007°
orbit number at epoch: 93043

The dashed part of the orbit path shows where the satellite is in the earth's shadow,  

DLR